TimePST,TemperatureF,Dew PointF,Humidity,Sea Level PressureIn,VisibilityMPH,Wind Direction,Wind SpeedMPH,Gust SpeedMPH,PrecipitationIn,Events,Conditions,WindDirDegrees,DateUTC
12:53 AM,34.0,33.1,96,30.19,6.0,Calm,Calm,-,N/A,,Overcast,0,2013-01-09 08:53:00
1:53 AM,34.0,32.0,92,30.18,2.5,South,3.5,-,N/A,,Overcast,180,2013-01-09 09:53:00
2:02 AM,33.8,32.0,93,30.10,1.2,South,3.5,-,N/A,,Overcast,180,2013-01-09 10:02:00
2:37 AM,33.8,32.0,93,30.06,3.0,Calm,Calm,-,N/A,,Overcast,0,2013-01-09 10:37:00
2:44 AM,33.8,32.0,93,30.05,1.8,Calm,Calm,-,N/A,,Overcast,0,2013-01-09 10:44:00
2:53 AM,33.1,32.0,96,30.12,1.5,WNW,3.5,-,N/A,,Overcast,300,2013-01-09 10:53:00
3:11 AM,33.8,32.0,93,30.04,3.0,NNW,4.6,-,N/A,,Overcast,340,2013-01-09 11:11:00
3:53 AM,34.0,32.0,92,30.12,0.8,NNE,8.1,-,N/A,,Overcast,30,2013-01-09 11:53:00
4:32 AM,33.8,32.0,93,30.02,6.0,NNE,6.9,-,N/A,,Overcast,30,2013-01-09 12:32:00
4:53 AM,33.1,32.0,96,30.10,8.0,Calm,Calm,-,N/A,,Overcast,0,2013-01-09 12:53:00
5:53 AM,33.1,32.0,96,30.11,10.0,WNW,5.8,-,N/A,,Overcast,290,2013-01-09 13:53:00
6:10 AM,33.8,32.0,93,30.03,10.0,North,3.5,-,0.00,Rain,Light Rain,350,2013-01-09 14:10:00
6:34 AM,33.8,32.0,93,30.02,9.0,ENE,6.9,-,0.00,Rain,Light Rain,70,2013-01-09 14:34:00
6:53 AM,34.0,32.0,92,30.09,10.0,NE,3.5,-,0.01,Rain,Light Rain,50,2013-01-09 14:53:00
7:53 AM,34.0,32.0,92,30.06,10.0,WSW,6.9,-,0.03,Rain,Light Rain,250,2013-01-09 15:53:00
8:26 AM,33.8,33.8,100,29.98,7.0,SW,4.6,-,0.00,,Overcast,230,2013-01-09 16:26:00
8:31 AM,33.8,33.8,100,29.97,3.0,WSW,5.8,-,0.00,,Overcast,240,2013-01-09 16:31:00
8:33 AM,33.8,33.8,100,29.97,1.8,WSW,5.8,-,0.00,,Overcast,240,2013-01-09 16:33:00
8:40 AM,33.8,33.8,100,29.97,1.0,SW,4.6,-,0.00,,Overcast,230,2013-01-09 16:40:00
8:45 AM,33.8,33.8,100,29.97,0.8,Calm,Calm,-,0.00,,Mist,0,2013-01-09 16:45:00
8:53 AM,34.0,33.1,96,30.04,0.8,South,3.5,-,0.00,,Mist,180,2013-01-09 16:53:00
9:10 AM,33.8,33.8,100,29.95,2.0,SE,3.5,-,N/A,,Mostly Cloudy,140,2013-01-09 17:10:00
9:34 AM,33.8,33.8,100,29.93,10.0,WSW,3.5,-,N/A,,Scattered Clouds,250,2013-01-09 17:34:00
9:45 AM,33.8,33.8,100,29.93,7.0,WNW,4.6,-,N/A,,Mostly Cloudy,290,2013-01-09 17:45:00
9:53 AM,35.1,33.1,92,30.00,10.0,WSW,3.5,-,N/A,,Mostly Cloudy,250,2013-01-09 17:53:00
10:53 AM,37.9,34.0,86,29.98,10.0,NE,3.5,-,N/A,,Overcast,50,2013-01-09 18:53:00
11:45 AM,39.2,35.6,87,29.91,2.5,Variable,3.5,-,0.03,Rain,Rain,0,2013-01-09 19:45:00
11:53 AM,39.9,37.0,89,29.97,4.0,Calm,Calm,-,0.04,Rain,Light Rain,0,2013-01-09 19:53:00
12:06 PM,39.2,37.4,93,29.90,10.0,Calm,Calm,-,0.00,Rain,Light Rain,0,2013-01-09 20:06:00
12:53 PM,41.0,34.0,76,29.95,10.0,West,9.2,-,0.00,,Overcast,260,2013-01-09 20:53:00
1:53 PM,39.9,30.9,70,29.96,10.0,WNW,8.1,-,0.00,,Overcast,290,2013-01-09 21:53:00
2:53 PM,39.0,30.0,70,29.98,10.0,WNW,10.4,-,N/A,,Overcast,300,2013-01-09 22:53:00
3:53 PM,37.0,25.0,62,29.98,10.0,NNE,6.9,-,0.00,,Overcast,20,2013-01-09 23:53:00
4:53 PM,36.0,28.9,76,30.00,8.0,Variable,3.5,-,0.00,Snow,Light Snow,0,2013-01-10 00:53:00
5:53 PM,33.1,30.0,89,29.99,10.0,North,3.5,-,0.01,Snow,Light Snow,350,2013-01-10 01:53:00
6:53 PM,33.1,30.0,89,30.00,10.0,Calm,Calm,-,0.00,,Mostly Cloudy,0,2013-01-10 02:53:00
7:53 PM,33.1,25.0,72,30.00,10.0,WNW,6.9,-,N/A,,Mostly Cloudy,290,2013-01-10 03:53:00
8:53 PM,33.1,25.0,72,30.01,10.0,West,8.1,-,N/A,,Overcast,280,2013-01-10 04:53:00
9:53 PM,33.1,24.1,70,30.01,10.0,Calm,Calm,-,N/A,,Overcast,0,2013-01-10 05:53:00
10:53 PM,32.0,26.1,79,30.03,8.0,Calm,Calm,-,0.00,Snow,Light Snow,0,2013-01-10 06:53:00
11:53 PM,30.9,26.1,82,30.03,10.0,Calm,Calm,-,0.00,,Overcast,0,2013-01-10 07:53:00